Location: ??
(35.5052°N, 139.7262°E)
Time: 02:13:51
(UTC+00:00)

Cosmos 1151 Rocket - Pass Details

Date: 20 June 2021
Orbit: 592 x 616 km, 82.5° (Epoch: 26 July)

Event Time Altitude Azimuth Distance (km) Brightness Sun altitude
Rises 17:22:33 0° 353° (N) 2,835 7.1 -20.0°
Reaches altitude 10° 17:24:46 10° 354° (N) 1,929 6.2 -19.7°
Maximum altitude 17:29:01 86° 84° (E) 598 2.9 -19.1°
Enters shadow 17:31:01 31° 172° (S) 1,048 3.9 -18.9°
